Weather History for Branson, MO

Change the Weather History Date:

Saturday, March 16, 2013

  Actual Average (KHRO) Record (KHRO)
Temperature  
Mean Temperature 60 °F 49 °F  
Max Temperature 73 °F 60 °F 82 °F (1982)
Min Temperature 46 °F 38 °F 15 °F (1900)
Degree Days  
Heating Degree Days 6 16  
Month to date heating degree days 298  
Since 1 July heating degree days 3470  
Cooling Degree Days 0 0  
Month to date cooling degree days 0  
Year to date cooling degree days 0  
Growing Degree Days 10 (Base 50)    
Moisture  
Dew Point 40 °F    
Average Humidity 48    
Maximum Humidity 66    
Minimum Humidity 38    
Precipitation  
Precipitation 0.00 in 0.13 in 2.28 in (2014)
Month to date precipitation 1.84  
Year to date precipitation 7.04  
Snow  
Snow 0.00 in 0.10 in 7.50 in (1892)
Month to date snowfall 1.6  
Since 1 July snowfall 10.8  
Snow Depth -    
Sea Level Pressure  
Sea Level Pressure 29.83 in    
Wind  
Wind Speed 10 mph (WNW)    
Max Wind Speed 14 mph    
Max Gust Speed 25 mph    
Visibility 10 miles    
Events      
T = Trace of Precipitation, MM = Missing Value Source: NWS Daily Summary

Daily Weather History Graph

Daily Weather History Graph

Search for Another Location

Airport:

Trip Planner

Search our weather history database for the weather conditions in past years. The results will help you decide how hot, cold, wet, or windy it might be!

Date:

Astronomy

Mar. 16, 2013 Rise Set
Actual Time 7:21 AM CDT 7:21 PM CDT
Civil Twilight 6:56 AM CDT 7:47 PM CDT
Nautical Twilight 6:26 AM CDT 8:17 PM CDT
Astronomical Twilight 5:55 AM CDT 8:47 PM CDT
Moon 10:00 AM CDT No Moon Set
Length of Visible Light 12h 50m
Length of Day
11h 59m
Waxing Crescent, 23% of the Moon is Illuminated
Mar 16
Waxing Crescent
Mar 19
First Quarter
Mar 27
Full
Apr 2
Last Quarter
Apr 10
New

Hourly Weather History & Observations

Time (CDT) Temp. Windchill Dew Point Humidity Pressure Visibility Wind Dir Wind Speed Gust Speed Precip Events Conditions
12:15 AM 66.2 °F - 44.6 °F 46% 29.79 in 10.0 mi SW 9.2 mph 19.6 mph N/A   Clear
12:35 AM 64.4 °F - 42.8 °F 45% 29.79 in 10.0 mi SW 12.7 mph 16.1 mph N/A   Clear
12:55 AM 64.4 °F - 41.0 °F 42% 29.79 in 10.0 mi SW 10.4 mph 18.4 mph N/A   Clear
1:15 AM 64.4 °F - 41.0 °F 42% 29.79 in 10.0 mi SW 10.4 mph 16.1 mph N/A   Clear
1:35 AM 64.4 °F - 41.0 °F 42% 29.79 in 10.0 mi SW 10.4 mph 18.4 mph N/A   Clear
1:55 AM 64.4 °F - 41.0 °F 42% 29.79 in 10.0 mi SW 9.2 mph - N/A   Clear
2:15 AM 64.4 °F - 41.0 °F 42% 29.79 in 10.0 mi SW 9.2 mph - N/A   Clear
2:35 AM 64.4 °F - 41.0 °F 42% 29.78 in 10.0 mi SW 9.2 mph 17.3 mph N/A   Clear
2:55 AM 62.6 °F - 41.0 °F 45% 29.78 in 10.0 mi SW 8.1 mph - N/A   Clear
3:15 AM 62.6 °F - 39.2 °F 42% 29.78 in 10.0 mi SW 8.1 mph - N/A   Clear
3:35 AM 62.6 °F - 39.2 °F 42% 29.78 in 10.0 mi SW 8.1 mph - N/A   Clear
3:55 AM 62.6 °F - 39.2 °F 42% 29.77 in 10.0 mi SW 10.4 mph 16.1 mph N/A   Clear
4:15 AM 64.4 °F - 39.2 °F 40% 29.77 in 10.0 mi SW 13.8 mph 21.9 mph N/A   Clear
4:35 AM 64.4 °F - 39.2 °F 40% 29.77 in 10.0 mi WSW 12.7 mph 18.4 mph N/A   Clear
4:55 AM 64.4 °F - 41.0 °F 42% 29.77 in 10.0 mi WSW 9.2 mph 16.1 mph N/A   Clear
5:15 AM 64.4 °F - 41.0 °F 42% 29.78 in 10.0 mi WSW 10.4 mph 18.4 mph N/A   Clear
5:35 AM 64.4 °F - 41.0 °F 42% 29.78 in 10.0 mi WSW 10.4 mph 19.6 mph N/A   Clear
5:55 AM 64.4 °F - 41.0 °F 42% 29.78 in 10.0 mi WSW 10.4 mph 17.3 mph N/A   Clear
6:15 AM 62.6 °F - 41.0 °F 45% 29.79 in 10.0 mi WSW 9.2 mph - N/A   Clear
6:50 AM 60.8 °F - 41.0 °F 48% 29.84 in 10.0 mi NW 9.2 mph - N/A   Mostly Cloudy
7:47 AM 59.0 °F - 41.0 °F 51% 29.84 in 10.0 mi West 5.8 mph - N/A   Mostly Cloudy
8:54 AM 62.6 °F - 41.0 °F 45% 29.85 in 10.0 mi WSW 8.1 mph 16.1 mph N/A   Mostly Cloudy
9:53 AM 64.4 °F - 42.8 °F 45% 29.87 in 10.0 mi WNW 11.5 mph - N/A   Mostly Cloudy
10:45 AM 66.2 °F - 42.8 °F 43% 29.87 in 10.0 mi NNW 6.9 mph - N/A   Overcast
11:45 AM 66.2 °F - 44.6 °F 46% 29.88 in 10.0 mi WNW 6.9 mph - N/A   Mostly Cloudy
12:55 PM 69.8 °F - 44.6 °F 40% 29.87 in 10.0 mi North 9.2 mph - N/A   Mostly Cloudy
1:51 PM 71.6 °F - 44.6 °F 38% 29.85 in 10.0 mi North 8.1 mph - N/A   Mostly Cloudy
2:50 PM 71.6 °F - 44.6 °F 38% 29.82 in 10.0 mi NNE 11.5 mph - N/A   Mostly Cloudy
3:55 PM 73.4 °F - 46.4 °F 38% 29.80 in 10.0 mi NNE 10.4 mph - N/A   Mostly Cloudy
4:45 PM 69.8 °F - 44.6 °F 40% 29.80 in 10.0 mi NE 12.7 mph 25.3 mph N/A   Mostly Cloudy
5:52 PM 64.4 °F - 41.0 °F 42% 29.81 in 10.0 mi NE 13.8 mph 19.6 mph N/A   Mostly Cloudy
6:52 PM 59.0 °F - 39.2 °F 48% 29.83 in 10.0 mi NNE 11.5 mph 18.4 mph N/A   Mostly Cloudy
7:51 PM 55.4 °F - 37.4 °F 51% 29.85 in 10.0 mi NE 9.2 mph 17.3 mph N/A   Mostly Cloudy
8:46 PM 51.8 °F - 37.4 °F 58% 29.88 in 10.0 mi NNE 13.8 mph 20.7 mph N/A   Overcast
8:55 PM 50.0 °F - 37.4 °F 62% 29.89 in 8.0 mi NNE 10.4 mph - N/A   Mostly Cloudy
9:15 PM 50.0 °F - 37.4 °F 62% 29.89 in 9.0 mi NNE 6.9 mph - N/A   Overcast
9:35 PM 50.0 °F - 35.6 °F 58% 29.90 in 9.0 mi NNE 8.1 mph - N/A   Overcast
9:55 PM 48.2 °F - 35.6 °F 62% 29.90 in 9.0 mi NE 6.9 mph - N/A   Overcast
10:15 PM 48.2 °F - 35.6 °F 62% 29.91 in 9.0 mi NE 6.9 mph - N/A   Overcast
10:55 PM 48.2 °F - 35.6 °F 62% 29.91 in 8.0 mi ENE 9.2 mph - N/A   Overcast
11:15 PM 46.4 °F 44.3 °F 35.6 °F 66% 29.91 in 8.0 mi NE 4.6 mph - N/A   Overcast
11:35 PM 46.4 °F 42.9 °F 35.6 °F 66% 29.91 in 8.0 mi ENE 6.9 mph - N/A   Overcast
11:55 PM 46.4 °F 43.5 °F 35.6 °F 66% 29.90 in 8.0 mi ENE 5.8 mph - N/A   Overcast